sat.trackr.live / text

‹ back to catalog

STARLINK-11166 [DTC]

NORAD 60062 · 2024-113D

PAYLOAD ACTIVE UNKNOWN

§ Identity

Operator
Country
US
Launch date
2024-06-19
Launch site
AFWTR
Launch vehicle
Mass (kg)
RCS (m²)

Purposes: comms

External: N2YO · Heavens-Above · Gunter

§ Orbital elements

Epoch: 2026-09-20T09:39:52.655328Z

Period
91.74 min
Inclination
53.1586°
Eccentricity
0.0001293
Mean motion
15.69723583 rev/d
Perigee alt
358.8 km
Apogee alt
360.6 km
Semi-major
6,737.8 km
B*
-3.0823e-5
RAAN
311.3062°
Arg perigee
60.2654°
Mean anomaly
299.8492°
Rev number
13,014

§ Raw data

STARLINK-11166 [DTC]1 60062U 24113D   26263.40269277 -.00004323  00000+0 -30823-4 0  99942 60062  53.1586 311.3062 0001293  60.2654 299.8492 15.69723583130149

JSON: /api/v1/satellites/60062 · /tle

For live sub-satellite position, see the globe view (requires WebGL).

§ Visibility from observer

Set your observer location to see the next 7 days of passes ≥ 10°. The values pass through the URL so the page stays shareable.

No JS? Fill the form by hand. The geolocation button needs JavaScript.